Regional Weather Roundup
Issued by NWS

Home | Current Version | Previous Version | Graphics & Text | Print | Product List | Glossary On
Versions: 1 2 3 4 5 6 7 8 9 10 11 12 13 14 15 16 17 18 19 20 21 22 23 24 25 26 27 28 29 30 31 32 33 34 35 36 37 38 39 40 41 42 43 44 45 46 47 48 49 50
000
ASUS43 KBIS 251002
RWRND

NORTH DAKOTA REGIONAL WEATHER ROUNDUP
NATIONAL WEATHER SERVICE BISMARCK ND
500 AM CDT TUE APR 25 2017

NOTE: "FAIR" INDICATES FEW OR NO CLOUDS BELOW 12,000 FEET WITH NO
SIGNIFICANT WEATHER AND/OR OBSTRUCTIONS TO VISIBILITY.


NDZ001>003-009>011-017-251100-
NORTHWEST NORTH DAKOTA

CITY           SKY/WX    TMP DP  RH WIND       PRES   REMARKS
WILLISTON      CLOUDY    31  22  69 NE12      29.86S
MINOT          CLOUDY    30  25  81 N15       29.83R WCI  19
MINOT AFB      CLOUDY    29  24  81 N16       29.84R WCI  17
$$

NDZ018>021-031>035-040>046-251100-
SOUTHWEST NORTH DAKOTA

CITY           SKY/WX    TMP DP  RH WIND       PRES   REMARKS
BISMARCK       CLOUDY    32  28  85 NE14      29.79R
DICKINSON      CLOUDY    27  26  96 NE13      29.75R FOG     WCI  16
GARRISON         N/A     29  24  82 NE12      29.81R WCI  19
HETTINGER ARPT CLOUDY    29  26  89 NE14      29.73F WCI  18
$$

NDZ004>008-012>016-024-026-027-054-251100-
NORTHEAST NORTH DAKOTA

CITY           SKY/WX    TMP DP  RH WIND       PRES   REMARKS
GRAND FORKS    CLOUDY    33  30  88 N20       29.73S
GRND FRKS AFB  CLOUDY    30  28  93 N20G29    29.74R WCI  18
DEVILS LAKE    CLOUDY    29  26  89 N18G26    29.78S WCI  16
$$

NDZ022-023-025-028>030-036>039-047>053-251100-
SOUTHEAST NORTH DAKOTA

CITY           SKY/WX    TMP DP  RH WIND       PRES   REMARKS
FARGO          CLOUDY    33  32  96 N22       29.67R
JAMESTOWN      CLOUDY    30  29  96 N20       29.72R WCI  17
$$





USA.gov is the U.S. government's official web portal to all federal, state and local government web resources and services.